Location: Unspecified
(17.6330°N, 0.0000°E)
Time: 21:24:20
(UTC+00:00)

S-56A Canister/Altair - Pass Details

Date: 02 July 2019
Orbit: 632 x 2500 km, 38.9° (Epoch: 15 July)

Event Time Altitude Azimuth Distance (km) Brightness Sun altitude
Rises 11:56:35 0° 251° (WSW) 6,152 12.1 84.3°
Reaches altitude 10° 12:00:51 10° 256° (WSW) 5,160 11.9 84.5°
Maximum altitude 12:15:14 51° 328° (NNW) 2,707 11.4 84.0°
Drops below altitude 10° 12:26:42 10° 42° (NE) 4,156 11.4 82.4°
Sets 12:29:46 0° 48° (NE) 4,914 11.6 81.9°
